This is the latest recevied weather packets stored in our database for station/object XQ6AK-15. If no packets are shown the sender has not sent any weather packets the latest 1 day(s).
| Time | Temp. | Humidity | Pressure | Rain* | Wind** | Luminosity | Snow |
|---|---|---|---|---|---|---|---|
| 1778042291 | 10° C | 99% | 1005.3 hPa | 1.27 mm | - | 0 W/m² | - |
| 1778041687 | 10° C | 99% | 1005.2 hPa | 1.78 mm | - | 0 W/m² | - |
| 1778041385 | 10° C | 99% | 1005.3 hPa | 1.78 mm | - | 0 W/m² | - |
| 1778040780 | 10.56° C | 99% | 1005 hPa | 1.27 mm | - | 0 W/m² | - |
| 1778040477 | 10.56° C | 99% | 1005.1 hPa | 1.78 mm | - | 0 W/m² | - |
| 1778039871 | 10.56° C | 99% | 1005.3 hPa | 3.05 mm | - | 0 W/m² | - |
| 1778039568 | 10.56° C | 99% | 1005.3 hPa | 1.78 mm | - | 0 W/m² | - |
| 1778039265 | 10.56° C | 99% | 1005.2 hPa | 1.27 mm | - | 0 W/m² | - |
| 1778038356 | 10.56° C | 99% | 1005.3 hPa | 3.05 mm | - | 0 W/m² | - |
| 1778037749 | 11.11° C | 99% | 1005.4 hPa | 3.56 mm | - | 0 W/m² | - |
| 1778037446 | 11.11° C | 99% | 1005.3 hPa | 3.05 mm | - | 0 W/m² | - |
| 1778037143 | 11.11° C | 99% | 1005.2 hPa | 1.27 mm | - | 0 W/m² | - |
| 1778036235 | 11.67° C | 99% | 1005.1 hPa | 1.78 mm | - | 0 W/m² | - |
| 1778035932 | 11.67° C | 99% | 1005.1 hPa | 3.05 mm | - | 0 W/m² | - |
| 1778035629 | 11.67° C | 99% | 1005.1 hPa | 1.27 mm | - | 0 W/m² | - |
| 1778035325 | 11.67° C | 99% | 1005.2 hPa | 1.78 mm | - | 0 W/m² | - |
| 1778035021 | 11.67° C | 99% | 1005.2 hPa | 1.27 mm | - | 0 W/m² | - |
| 1778034719 | 11.67° C | 99% | 1005.2 hPa | 3.05 mm | - | 0 W/m² | - |
| 1778034416 | 11.67° C | 99% | 1005.2 hPa | 3.05 mm | - | 0 W/m² | - |
| 1778034113 | 11.67° C | 99% | 1004.9 hPa | 3.05 mm | - | 0 W/m² | - |
| 1778033811 | 11.67° C | 99% | 1004.9 hPa | 3.05 mm | - | 0 W/m² | - |
| 1778033508 | 11.67° C | 99% | 1005 hPa | 1.78 mm | - | 0 W/m² | - |
| 1778032291 | 11.67° C | 99% | 1005.1 hPa | 1.78 mm | - | 0 W/m² | - |
| 1778031989 | 11.67° C | 99% | 1004.9 hPa | 3.05 mm | - | 0 W/m² | - |
| 1778031684 | 11.67° C | 99% | 1005.1 hPa | 3.05 mm | - | 0 W/m² | - |
* Rain latest hour (hover to see other rain measurements)
** Current wind speed in m/s (hover to see current wind gust speed)